CW6538 Cattolica IT current weather conditions

sailwx.info

Wind from 310 at 6 knots gusting 17

Air temperature 21.7° C
Dewpoint 13.3° C

Last reported at 2014-Jul-10 15:49 UTC.
Time now 2014-Jul-10 16:06 UTC

Location: N 43°58' E 012°44'.
View on Google Maps.

See reports from other nearby stations

  
Tides Stations Pressure Air Temp Water Temp Dewpoint Dewpoint depression Visibility Wind Speed Wind Dir Waves Ship positions
date/time (UTC)wind fromknots sea level pressurealtimeterstation pressurevisibilityair tempwater tempwave heightnotes
2014-Jul-10 15:49 310 6 gusting 17 21.7
2014-Jul-10 15:44 271 7 gusting 15 21.7
2014-Jul-10 15:39 346 6 gusting 19 21.7
2014-Jul-10 15:34 315 10 gusting 19 21.7
2014-Jul-10 15:29 284 13 gusting 19 21.7
2014-Jul-10 15:24 286 10 gusting 19 21.7
2014-Jul-10 15:19 332 9 gusting 18 21.7
2014-Jul-10 15:14 355 9 gusting 18 22.2
2014-Jul-10 15:09 330 8 gusting 19 21.7
2014-Jul-10 15:04 327 11 gusting 19 22.2
2014-Jul-10 14:59 297 11 gusting 18 22.2
2014-Jul-10 14:54 350 8 gusting 18 22.2
2014-Jul-10 14:49 335 9 gusting 18 21.7
2014-Jul-10 14:44 313 7 gusting 17 21.7
2014-Jul-10 14:39 316 9 gusting 17 21.7
2014-Jul-10 14:34 327 7 gusting 16 21.1
2014-Jul-10 14:24 334 8 gusting 16 20.6
2014-Jul-10 14:19 298 6 gusting 16 20.6
2014-Jul-10 14:14 321 6 gusting 16 20.6
2014-Jul-10 14:09 293 9 gusting 16 20.0
2014-Jul-10 14:04 290 5 gusting 17 20.0
2014-Jul-10 13:59 273 6 gusting 17 20.0
2014-Jul-10 13:54 258 9 gusting 16 20.0
2014-Jul-10 13:49 290 6 gusting 17 20.0
2014-Jul-10 13:44 266 8 gusting 17 20.0
2014-Jul-10 13:39 344 9 gusting 13 19.4
2014-Jul-10 13:34 313 6 gusting 13 19.4
2014-Jul-10 13:29 317 6 gusting 15 19.4
2014-Jul-10 13:24 290 6 gusting 15 18.9
2014-Jul-10 13:19 240 6 gusting 12 18.3
2014-Jul-10 13:14 267 8 gusting 12 18.3
2014-Jul-10 13:09 323 7 gusting 13 17.8
2014-Jul-10 13:04 317 6 gusting 13 17.8
2014-Jul-10 12:59 284 6 gusting 13 17.2
2014-Jul-10 12:54 282 6 gusting 15 17.2
2014-Jul-10 12:49 265 6 gusting 18 17.2
2014-Jul-10 12:44 264 8 gusting 12 17.2
2014-Jul-10 12:39 263 7 gusting 12 17.2
2014-Jul-10 12:34 277 6 gusting 13 17.2
2014-Jul-10 12:29 280 6 gusting 16 17.8
2014-Jul-10 12:24 269 8 gusting 16 17.8
2014-Jul-10 12:19 263 9 gusting 19 17.8
2014-Jul-10 12:14 292 9 gusting 19 17.8
2014-Jul-10 12:09 279 7 gusting 18 18.3
2014-Jul-10 12:04 277 6 gusting 13 18.3
2014-Jul-10 11:59 252 7 gusting 13 18.3
2014-Jul-10 11:54 299 6 gusting 13 18.3
2014-Jul-10 11:49 360 6 gusting 13 18.3
2014-Jul-10 11:44 266 5 gusting 13 18.3
2014-Jul-10 11:39 226 9 gusting 18 17.8
2014-Jul-10 11:34 270 9 gusting 18 17.8
2014-Jul-10 11:29 265 8 gusting 15 17.8
2014-Jul-10 11:24 276 9 gusting 17 17.8
2014-Jul-10 11:19 236 9 gusting 17 18.3
2014-Jul-10 11:14 311 10 gusting 19 18.3
2014-Jul-10 11:09 293 10 gusting 19 18.9
2014-Jul-10 11:04 287 10 gusting 18 18.9
2014-Jul-10 10:59 271 9 gusting 16 18.9
2014-Jul-10 10:54 272 8 gusting 18 18.9
2014-Jul-10 10:49 264 11 gusting 18 18.9
2014-Jul-10 10:44 242 7 gusting 19 18.9
2014-Jul-10 10:39 271 9 gusting 19 18.3
2014-Jul-10 10:34 296 9 gusting 19 18.9
2014-Jul-10 10:29 309 11 gusting 19 18.9
2014-Jul-10 10:24 259 7 gusting 13 18.9
2014-Jul-10 10:19 288 3 gusting 13 18.3
2014-Jul-10 10:14 273 8 gusting 17 17.8
2014-Jul-10 10:09 289 7 gusting 17 17.2
2014-Jul-10 10:04 301 6 gusting 10 17.2
2014-Jul-10 09:59 274 6 gusting 10 16.7
2014-Jul-10 09:54 279 5 gusting 9 16.1
2014-Jul-10 09:49 238 5 gusting 12 16.1
2014-Jul-10 09:44 287 2 gusting 13 16.1
2014-Jul-10 09:39 294 8 gusting 17 16.1
2014-Jul-10 09:34 301 7 gusting 19 16.1
2014-Jul-10 09:29 265 13 gusting 19 16.7
2014-Jul-10 09:24 288 9 gusting 16 17.8
2014-Jul-10 09:19 292 8 gusting 13 17.8
2014-Jul-10 09:14 309 6 gusting 10 17.2
2014-Jul-10 09:09 245 7 gusting 10 17.2
2014-Jul-10 09:04 279 4 gusting 13 17.8
2014-Jul-10 08:59 261 9 gusting 13 17.8
2014-Jul-10 08:54 309 5 gusting 9 17.8
2014-Jul-10 08:49 245 5 gusting 9 17.8
2014-Jul-10 08:44 257 5 gusting 9 17.8
2014-Jul-10 08:39 251 3 gusting 8 17.8
2014-Jul-10 08:34 265 5 gusting 10 17.8
2014-Jul-10 08:29 266 6 gusting 12 17.2
2014-Jul-10 08:24 298 6 gusting 12 17.8
2014-Jul-10 08:19 277 5 gusting 10 17.2
2014-Jul-10 08:14 279 6 gusting 13 17.8
2014-Jul-10 08:09 323 6 gusting 15 17.8
2014-Jul-10 08:04 331 7 gusting 15 17.8
2014-Jul-10 07:59 286 8 gusting 13 17.8
2014-Jul-10 07:54 283 5 gusting 15 17.8
2014-Jul-10 07:49 275 8 gusting 13 17.8
2014-Jul-10 07:44 277 4 gusting 12 17.8
2014-Jul-10 07:39 280 5 gusting 10 17.8
2014-Jul-10 07:34 276 6 gusting 11 17.2
2014-Jul-10 07:29 290 7 gusting 11 17.2
2014-Jul-10 07:24 290 5 gusting 11 17.2
2014-Jul-10 07:19 276 6 gusting 12 16.7
2014-Jul-10 07:09 302 9 gusting 15 17.2
2014-Jul-10 07:04 278 7 gusting 11 17.2
2014-Jul-10 06:59 254 6 gusting 13 17.2
2014-Jul-10 06:54 255 5 gusting 13 17.2
2014-Jul-10 06:49 268 6 gusting 11 17.2
2014-Jul-10 06:44 234 6 gusting 10 17.2
2014-Jul-10 06:39 200 4 gusting 8 17.2
2014-Jul-10 06:34 273 3 gusting 7 16.7
2014-Jul-10 06:29 250 4 gusting 8 16.7
2014-Jul-10 06:24 279 5 gusting 8 16.1
2014-Jul-10 06:19 281 4 gusting 8 16.1
2014-Jul-10 06:14 284 5 gusting 8 16.1
2014-Jul-10 06:09 348 2 gusting 7 16.1
2014-Jul-10 06:04 267 3 gusting 9 16.1
2014-Jul-10 05:59 319 5 gusting 9 16.1
2014-Jul-10 05:54 219 2 gusting 8 16.1
2014-Jul-10 05:49 293 4 gusting 6 16.1
2014-Jul-10 05:44 318 4 gusting 10 16.1
2014-Jul-10 05:39 308 6 gusting 12 16.1
2014-Jul-10 05:34 291 6 gusting 13 16.1
2014-Jul-10 05:29 281 6 gusting 13 16.1
2014-Jul-10 05:24 284 4 gusting 7 16.7
2014-Jul-10 05:19 317 3 gusting 6 16.7
2014-Jul-10 05:14 273 4 gusting 9 16.1
2014-Jul-10 05:09 323 3 gusting 9 16.1
2014-Jul-10 05:04 319 5 gusting 7 16.1
2014-Jul-10 04:59 268 4 gusting 6 16.1
2014-Jul-10 04:54 263 1 gusting 6 16.1
2014-Jul-10 04:49 262 2 gusting 7 16.1
2014-Jul-10 04:44 307 3 gusting 9 16.1
2014-Jul-10 04:39 267 5 gusting 9 16.1
2014-Jul-10 04:34 319 1 gusting 7 16.1
2014-Jul-10 04:29 335 5 gusting 7 16.1
2014-Jul-10 04:24 288 3 gusting 7 16.1
2014-Jul-10 04:19 280 4 gusting 11 16.1
2014-Jul-10 04:14 258 4 gusting 11 16.1
2014-Jul-10 04:09 250 2 gusting 8 16.1
2014-Jul-10 04:04 281 4 gusting 9 16.1
2014-Jul-10 03:59 277 2 gusting 6 16.1
2014-Jul-10 03:54 299 2 gusting 9 16.7
2014-Jul-10 03:49 278 6 gusting 9 16.7
2014-Jul-10 03:44 274 6 gusting 12 16.7
2014-Jul-10 03:39 270 6 gusting 12 16.7
2014-Jul-10 03:33 308 5 gusting 12 17.2
2014-Jul-10 03:24 310 8 gusting 15 17.2
2014-Jul-10 03:19 326 6 gusting 15 17.2
2014-Jul-10 03:14 315 8 gusting 13 17.2
2014-Jul-10 03:09 294 5 gusting 13 17.2
2014-Jul-10 03:04 293 7 gusting 13 17.2
2014-Jul-10 02:58 288 7 gusting 13 17.2
2014-Jul-10 02:54 307 7 gusting 13 17.2
2014-Jul-10 02:49 319 6 gusting 11 17.2
2014-Jul-10 02:44 285 2 gusting 8 17.2
2014-Jul-10 02:39 304 5 gusting 8 16.7
2014-Jul-10 02:34 290 3 gusting 5 16.7
2014-Jul-10 02:29 321 1 gusting 4 16.7
2014-Jul-10 02:24 281 0 gusting 4 16.7
2014-Jul-10 02:19 281 16.7
2014-Jul-10 02:14 281 3 gusting 6 16.7
2014-Jul-10 02:09 242 2 gusting 6 16.7
2014-Jul-10 02:04 273 3 gusting 6 16.7
2014-Jul-10 01:59 225 4 gusting 6 16.7
2014-Jul-10 01:54 250 2 gusting 5 16.7
2014-Jul-10 01:49 256 2 gusting 5 16.7
2014-Jul-10 01:44 227 3 gusting 5 16.7
2014-Jul-10 01:39 205 2 gusting 8 16.7
2014-Jul-10 01:34 175 5 gusting 8 16.7
2014-Jul-10 01:29 186 4 gusting 6 16.7
2014-Jul-10 01:24 200 3 gusting 6 16.7
2014-Jul-10 01:19 169 3 gusting 6 16.7
2014-Jul-10 01:14 188 3 gusting 6 16.7
2014-Jul-10 01:09 186 4 gusting 8 16.7
2014-Jul-10 01:04 194 5 gusting 8 16.7
2014-Jul-10 00:59 213 3 gusting 6 16.7
2014-Jul-10 00:54 225 2 gusting 6 16.7
2014-Jul-10 00:49 227 3 gusting 6 16.7
2014-Jul-10 00:44 192 4 gusting 6 16.7
2014-Jul-10 00:39 188 3 gusting 4 17.2
2014-Jul-10 00:34 165 2 gusting 5 17.2
2014-Jul-10 00:29 164 3 gusting 5 17.2
2014-Jul-10 00:23 161 2 gusting 4 17.2
2014-Jul-10 00:19 162 2 gusting 3 17.2
2014-Jul-10 00:14 162 17.2
2014-Jul-10 00:09 162 17.2
2014-Jul-10 00:04 161 0 gusting 5 17.2
2014-Jul-09 23:59 152 3 gusting 5 17.2
2014-Jul-09 23:54 155 3 gusting 5 17.8
2014-Jul-09 23:49 159 3 gusting 5 17.8
2014-Jul-09 23:44 157 2 gusting 5 17.8
2014-Jul-09 23:39 159 2 gusting 5 17.8
2014-Jul-09 23:34 163 2 gusting 4 17.8
2014-Jul-09 23:29 163 1 gusting 5 17.8
2014-Jul-09 23:24 163 2 gusting 5 17.8
2014-Jul-09 23:19 166 2 gusting 4 17.8
2014-Jul-09 23:14 166 1 gusting 4 17.8
2014-Jul-09 23:09 166 2 gusting 4 17.8
2014-Jul-09 23:04 156 1 gusting 4 17.8
2014-Jul-09 22:59 157 17.8
2014-Jul-09 22:54 157 17.8
2014-Jul-09 22:49 157 2 gusting 4 17.8
2014-Jul-09 22:44 136 17.8
2014-Jul-09 22:39 136 3 gusting 6 17.8
2014-Jul-09 22:34 121 3 gusting 5 18.3
2014-Jul-09 22:29 147 2 gusting 4 18.3
2014-Jul-09 22:24 145 3 gusting 6 18.3
2014-Jul-09 22:19 137 4 gusting 6 18.3
2014-Jul-09 22:14 133 2 gusting 5 18.3
2014-Jul-09 22:09 128 2 gusting 5 18.3
2014-Jul-09 22:05 143 3 gusting 5 18.9
2014-Jul-09 21:59 130 1 gusting 6 18.9
2014-Jul-09 21:54 180 1 gusting 6 18.9
2014-Jul-09 21:49 144 2 gusting 6 18.9
2014-Jul-09 21:44 205 3 gusting 5 18.9
2014-Jul-09 21:39 184 2 gusting 4 18.9
2014-Jul-09 21:34 162 18.9
2014-Jul-09 21:29 163 1 gusting 3 18.9
2014-Jul-09 21:24 163 18.9
2014-Jul-09 21:18 163 0 gusting 5 18.9
2014-Jul-09 21:14 163 2 gusting 6 18.9
2014-Jul-09 21:04 136 1 gusting 5 18.9
2014-Jul-09 20:59 131 2 gusting 5 18.9
2014-Jul-09 20:54 142 3 gusting 5 19.4
2014-Jul-09 20:49 167 3 gusting 5 19.4
2014-Jul-09 20:44 097 19.4
2014-Jul-09 20:39 097 19.4
2014-Jul-09 20:34 097 19.4
2014-Jul-09 20:29 097 19.4
2014-Jul-09 20:24 097 19.4
2014-Jul-09 20:19 097 0 gusting 4 19.4
2014-Jul-09 20:14 138 19.4
2014-Jul-09 20:09 205 19.4
2014-Jul-09 20:04 208 5 gusting 12 20.0
2014-Jul-09 19:59 180 7 gusting 12 20.6
2014-Jul-09 19:54 225 6 gusting 10 21.1
2014-Jul-09 19:49 225 4 gusting 8 21.1
2014-Jul-09 19:44 300 3 gusting 8 21.1
2014-Jul-09 19:39 301 3 gusting 8 21.1
2014-Jul-09 19:34 347 5 gusting 8 21.1
2014-Jul-09 19:29 005 6 gusting 11 21.1
2014-Jul-09 19:24 307 6 gusting 11 21.1
2014-Jul-09 19:19 346 5 gusting 13 21.7
2014-Jul-09 19:14 319 7 gusting 16 21.7
2014-Jul-09 19:09 335 8 gusting 16 21.7
2014-Jul-09 19:04 350 6 gusting 16 22.2
2014-Jul-09 18:59 016 9 gusting 16 22.2
2014-Jul-09 18:54 355 7 gusting 13 22.2
2014-Jul-09 18:49 351 4 gusting 6 22.2
2014-Jul-09 18:44 307 2 gusting 6 22.2
2014-Jul-09 18:39 208 22.2
2014-Jul-09 18:34 192 6 gusting 10 22.2
2014-Jul-09 18:24 207 5 gusting 8 22.8
2014-Jul-09 18:19 196 4 gusting 8 22.8
2014-Jul-09 18:14 148 5 gusting 8 23.3
2014-Jul-09 18:09 183 3 gusting 6 23.9
2014-Jul-09 18:04 240 23.9
2014-Jul-09 17:59 211 4 gusting 6 23.9
2014-Jul-09 17:54 195 3 gusting 6 23.9
2014-Jul-09 17:49 221 4 gusting 6 23.9
2014-Jul-09 17:44 184 23.9
2014-Jul-09 17:39 245 2 gusting 4 23.3
2014-Jul-09 17:34 229 23.3
2014-Jul-09 17:29 184 0 gusting 6 23.9
2014-Jul-09 17:24 174 2 gusting 5 23.9
2014-Jul-09 17:14 163 2 gusting 6 23.9
2014-Jul-09 17:09 119 3 gusting 5 23.9
2014-Jul-09 17:04 156 2 gusting 5 23.9
2014-Jul-09 16:59 169 2 gusting 6 23.9
2014-Jul-09 16:54 172 4 gusting 6 23.9
2014-Jul-09 16:49 188 4 gusting 6 23.9
2014-Jul-09 16:44 200 4 gusting 6 23.9
2014-Jul-09 16:39 153 1 gusting 6 23.9
2014-Jul-09 16:34 161 2 gusting 6 23.9
2014-Jul-09 16:29 140 3 gusting 5 23.9
2014-Jul-09 16:24 204 2 gusting 10 23.9
2014-Jul-09 16:19 107 5 gusting 13 23.9
2014-Jul-09 16:14 071 6 gusting 13 23.9
2014-Jul-09 16:09 070 6 gusting 15 24.4
2014-Jul-09 16:04 067 7 gusting 17 24.4
2014-Jul-09 15:59 059 11 gusting 17 23.9
2014-Jul-09 15:54 021 7 gusting 17 24.4
2014-Jul-09 15:49 043 10 gusting 17 24.4
2014-Jul-09 15:44 056 10 gusting 16 24.4
2014-Jul-09 15:39 051 9 gusting 16 24.4
2014-Jul-09 15:34 049 9 gusting 15 24.4
2014-Jul-09 15:29 052 8 gusting 16 24.4
2014-Jul-09 15:24 051 9 gusting 16 24.4
2014-Jul-09 15:19 063 8 gusting 13 24.4
2014-Jul-09 15:14 046 7 gusting 17 25.0
2014-Jul-09 15:09 060 9 gusting 17 25.0
2014-Jul-09 15:04 044 9 gusting 16 25.0
2014-Jul-09 14:59 012 9 gusting 15 25.6
2014-Jul-09 14:54 055 8 gusting 16 25.6
2014-Jul-09 14:49 043 9 gusting 17 25.6
2014-Jul-09 14:44 009 13 gusting 19 26.1
2014-Jul-09 14:39 056 9 gusting 19 26.1
2014-Jul-09 14:34 005 9 gusting 17 26.7
2014-Jul-09 14:29 022 10 gusting 15 26.7
2014-Jul-09 14:24 043 8 gusting 15 26.7
2014-Jul-09 14:19 030 9 gusting 17 27.2
2014-Jul-09 14:14 032 9 gusting 17 27.2
2014-Jul-09 14:09 042 9 gusting 13 27.2
2014-Jul-09 14:04 011 6 gusting 11 27.2
2014-Jul-09 13:59 044 6 gusting 11 27.2
2014-Jul-09 13:54 005 8 gusting 13 27.2
2014-Jul-09 13:49 050 6 gusting 16 27.2
2014-Jul-09 13:44 015 8 gusting 16 27.2
2014-Jul-09 13:39 057 8 gusting 15 27.2
2014-Jul-09 13:34 038 5 gusting 11 27.2
2014-Jul-09 13:29 009 6 gusting 9 26.7
2014-Jul-09 13:24 037 6 gusting 13 26.7
2014-Jul-09 13:19 355 6 gusting 13 27.8
2014-Jul-09 13:14 272 6 gusting 8 27.8
2014-Jul-09 13:09 308 6 gusting 10 27.8
2014-Jul-09 13:04 289 6 gusting 10 27.8
2014-Jul-09 12:59 285 6 gusting 10 26.7
2014-Jul-09 12:54 290 6 gusting 10 27.2
2014-Jul-09 12:49 202 1 gusting 13 28.3
2014-Jul-09 12:44 227 6 gusting 15 27.8
2014-Jul-09 12:38 240 8 gusting 17 27.8
2014-Jul-09 12:34 250 6 gusting 16 27.2
2014-Jul-09 12:29 270 6 gusting 19 27.2
2014-Jul-09 12:24 211 6 gusting 19 27.2
2014-Jul-09 12:19 225 6 gusting 17 26.7
2014-Jul-09 12:14 189 9 gusting 16 26.7
2014-Jul-09 12:09 209 11 gusting 16 27.2
2014-Jul-09 12:04 231 9 gusting 17 26.7
2014-Jul-09 11:59 202 8 gusting 17 26.7
2014-Jul-09 11:54 198 8 gusting 17 26.7
2014-Jul-09 11:49 224 10 gusting 19 26.7
2014-Jul-09 11:44 227 11 gusting 19 26.7
2014-Jul-09 11:39 185 7 gusting 19 27.2
2014-Jul-09 11:34 222 10 gusting 19 27.2
2014-Jul-09 11:29 187 10 gusting 16 27.2
2014-Jul-09 11:19 228 7 gusting 20 27.2
2014-Jul-09 11:14 234 6 gusting 15 26.7
2014-Jul-09 11:09 238 6 gusting 15 26.1
2014-Jul-09 11:04 215 8 gusting 15 26.7
2014-Jul-09 10:59 237 7 gusting 17 26.7
2014-Jul-09 10:54 219 9 gusting 17 26.1
2014-Jul-09 10:49 202 8 gusting 19 26.7
2014-Jul-09 10:43 198 12 gusting 19 26.7
2014-Jul-09 10:39 222 11 gusting 23 26.7
2014-Jul-09 10:34 185 9 gusting 23 26.7
2014-Jul-09 10:29 190 9 gusting 21 26.7
2014-Jul-09 10:24 231 9 gusting 21 27.2
2014-Jul-09 10:19 209 8 gusting 16 27.2
2014-Jul-09 10:14 233 8 gusting 18 26.7
2014-Jul-09 10:09 238 9 gusting 18 26.7
2014-Jul-09 10:04 256 10 gusting 18 26.7
2014-Jul-09 09:59 255 12 gusting 18 26.1
2014-Jul-09 09:54 230 9 gusting 18 26.1
2014-Jul-09 09:49 203 10 gusting 17 26.1
2014-Jul-09 09:44 184 9 gusting 13 26.1
2014-Jul-09 09:39 214 6 gusting 16 26.1
2014-Jul-09 09:34 221 9 gusting 16 26.1
2014-Jul-09 09:29 259 4 gusting 12 26.1
2014-Jul-09 09:24 164 8 gusting 13 26.1
2014-Jul-09 09:19 207 9 gusting 13 25.6
2014-Jul-09 09:14 222 6 gusting 13 26.1
2014-Jul-09 09:09 207 6 gusting 15 25.6
2014-Jul-09 09:04 206 10 gusting 15 25.6
2014-Jul-09 08:59 208 6 gusting 13 25.6
2014-Jul-09 08:54 213 8 gusting 16 25.6
2014-Jul-09 08:49 207 8 gusting 16 25.6
2014-Jul-09 08:44 230 6 gusting 16 25.6
2014-Jul-09 08:39 227 6 gusting 15 25.6
2014-Jul-09 08:34 225 7 gusting 12 25.0
2014-Jul-09 08:29 209 6 gusting 13 25.0
2014-Jul-09 08:24 237 9 gusting 15 25.0
2014-Jul-09 08:19 231 9 gusting 16 25.0
2014-Jul-09 08:14 233 10 gusting 16 25.0
2014-Jul-09 08:09 221 5 gusting 15 25.0
2014-Jul-09 08:04 183 7 gusting 15 25.0
2014-Jul-09 07:59 205 6 gusting 13 24.4
2014-Jul-09 07:54 232 7 gusting 18 24.4
2014-Jul-09 07:49 248 10 gusting 18 24.4
2014-Jul-09 07:44 269 9 gusting 15 24.4
2014-Jul-09 07:34 218 9 gusting 17 23.9
2014-Jul-09 07:29 205 8 gusting 13 23.9
2014-Jul-09 07:24 246 6 gusting 16 23.9
2014-Jul-09 07:19 222 9 gusting 16 23.9
2014-Jul-09 07:14 214 8 gusting 16 23.9
2014-Jul-09 07:09 257 7 gusting 13 23.3
2014-Jul-09 07:04 229 6 gusting 13 23.3
2014-Jul-09 06:59 226 7 gusting 13 23.3
2014-Jul-09 06:54 206 7 gusting 13 23.3
2014-Jul-09 06:49 213 7 gusting 13 22.8
2014-Jul-09 06:44 201 9 gusting 13 22.8
2014-Jul-09 06:39 228 6 gusting 15 22.8
2014-Jul-09 06:34 206 9 gusting 15 22.8
2014-Jul-09 06:24 244 8 gusting 13 22.2
2014-Jul-09 06:19 220 7 gusting 19 22.2
2014-Jul-09 06:14 216 8 gusting 17 22.2
2014-Jul-09 06:09 190 6 gusting 11 22.2
2014-Jul-09 06:04 221 6 gusting 13 21.7
2014-Jul-09 05:59 219 8 gusting 16 21.7
2014-Jul-09 05:54 244 8 gusting 16 21.7
2014-Jul-09 05:49 196 6 gusting 15 21.7
2014-Jul-09 05:44 237 7 gusting 13 21.1
2014-Jul-09 05:39 190 8 gusting 12 21.1
2014-Jul-09 05:34 227 6 gusting 12 21.1
2014-Jul-09 05:29 264 5 gusting 9 21.1
2014-Jul-09 05:24 200 5 gusting 9 20.6
2014-Jul-09 05:14 219 6 gusting 11 20.6
2014-Jul-09 05:04 223 5 gusting 8 20.0
2014-Jul-09 04:59 208 4 gusting 7 20.0
2014-Jul-09 04:54 211 2 gusting 9 19.4
2014-Jul-09 04:49 188 4 gusting 9 19.4
2014-Jul-09 04:44 201 3 gusting 6 19.4
2014-Jul-09 04:39 227 3 gusting 6 18.9
2014-Jul-09 04:34 209 4 gusting 6 18.9
2014-Jul-09 04:29 205 3 gusting 6 18.9
2014-Jul-09 04:24 232 3 gusting 6 18.9
2014-Jul-09 04:19 202 4 gusting 6 18.9
2014-Jul-09 04:14 213 5 gusting 7 18.9
2014-Jul-09 04:09 213 6 gusting 8 18.9
2014-Jul-09 04:04 194 4 gusting 8 18.9
2014-Jul-09 03:59 205 3 gusting 7 18.9
2014-Jul-09 03:54 192 5 gusting 8 18.9
2014-Jul-09 03:49 186 4 gusting 8 18.9
2014-Jul-09 03:44 194 5 gusting 7 18.9
2014-Jul-09 03:39 192 4 gusting 5 19.4
2014-Jul-09 03:34 180 2 gusting 6 19.4
2014-Jul-09 03:29 201 3 gusting 6 19.4
2014-Jul-09 03:24 195 2 gusting 6 19.4
2014-Jul-09 03:19 219 3 gusting 6 19.4
2014-Jul-09 03:14 232 2 gusting 6 19.4
2014-Jul-09 03:04 202 3 gusting 6 19.4
2014-Jul-09 02:59 224 5 gusting 6 20.0
2014-Jul-09 02:54 190 4 gusting 8 20.0
2014-Jul-09 02:49 209 5 gusting 9 20.0
2014-Jul-09 02:44 245 6 gusting 9 19.4
2014-Jul-09 02:39 246 4 gusting 12 19.4
2014-Jul-09 02:34 213 6 gusting 12 18.9
2014-Jul-09 02:29 190 4 gusting 9 19.4
2014-Jul-09 02:24 170 5 gusting 9 18.9
2014-Jul-09 02:19 190 5 gusting 8 18.9
2014-Jul-09 02:14 197 5 gusting 10 18.9
2014-Jul-09 02:09 232 6 gusting 10 18.9
2014-Jul-09 02:04 232 6 gusting 9 18.9
2014-Jul-09 01:59 204 4 gusting 10 18.9
2014-Jul-09 01:54 178 6 gusting 10 18.9
2014-Jul-09 01:48 218 6 gusting 9 18.9
2014-Jul-09 01:43 184 6 gusting 11 18.9
2014-Jul-09 01:38 197 6 gusting 12 19.4
2014-Jul-09 01:34 187 7 gusting 13 19.4
2014-Jul-09 01:29 233 7 gusting 13 19.4
2014-Jul-09 01:24 215 6 gusting 13 19.4
2014-Jul-09 01:19 184 7 gusting 16 19.4
2014-Jul-09 01:14 201 6 gusting 16 18.9
2014-Jul-09 01:09 223 6 gusting 10 18.9
2014-Jul-09 01:04 200 6 gusting 9 18.3
2014-Jul-09 00:59 221 4 gusting 11 18.3
2014-Jul-09 00:54 205 4 gusting 10 18.3
2014-Jul-09 00:49 198 1 gusting 5 18.3
2014-Jul-09 00:44 225 1 gusting 3 18.3
2014-Jul-09 00:39 231 0 gusting 6 17.8
2014-Jul-09 00:34 226 4 gusting 6 17.8
2014-Jul-09 00:29 213 4 gusting 6 17.8
2014-Jul-09 00:24 184 0 gusting 7 17.8
2014-Jul-09 00:19 216 1 gusting 8 17.8
2014-Jul-09 00:14 163 4 gusting 10 17.8
2014-Jul-09 00:09 187 6 gusting 10 17.8
2014-Jul-09 00:04 193 6 gusting 12 17.8
2014-Jul-08 23:59 178 6 gusting 13 17.8
2014-Jul-08 23:54 174 8 gusting 13 17.8
2014-Jul-08 23:49 217 6 gusting 13 17.8
2014-Jul-08 23:44 198 8 gusting 13 17.8
2014-Jul-08 23:39 166 7 gusting 12 18.3
2014-Jul-08 23:33 202 8 gusting 15 18.3
2014-Jul-08 23:29 188 8 gusting 15 18.9
2014-Jul-08 23:24 233 7 gusting 23 19.4
2014-Jul-08 23:19 218 10 gusting 29 20.0
2014-Jul-08 23:14 257 10 gusting 29 20.6
2014-Jul-08 23:09 223 7 gusting 18 20.6
2014-Jul-08 23:04 235 11 gusting 20 20.6
2014-Jul-08 22:54 284 6 gusting 19 20.0
2014-Jul-08 22:49 218 5 gusting 9 20.0
2014-Jul-08 22:44 233 4 gusting 7 20.6
2014-Jul-08 22:39 202 4 gusting 11 20.6
2014-Jul-08 22:34 242 5 gusting 13 21.1
2014-Jul-08 22:29 254 6 gusting 13 21.7
2014-Jul-08 22:24 329 4 gusting 10 21.7
2014-Jul-08 22:18 280 6 gusting 11 21.7
2014-Jul-08 22:14 310 6 gusting 11 22.2
2014-Jul-08 22:09 254 2 gusting 6 22.2
2014-Jul-08 22:05 246 1 gusting 5 22.2
2014-Jul-08 21:59 232 0 gusting 5 22.2
2014-Jul-08 21:54 238 2 gusting 5 21.7
2014-Jul-08 21:49 212 4 gusting 6 21.7
2014-Jul-08 21:44 168 4 gusting 6 21.7
2014-Jul-08 21:39 219 2 gusting 7 21.7
2014-Jul-08 21:34 205 4 gusting 7 21.7
2014-Jul-08 21:29 176 6 gusting 7 21.7
2014-Jul-08 21:24 171 3 gusting 11 21.7
2014-Jul-08 21:19 207 6 gusting 11 21.7
2014-Jul-08 21:14 193 7 gusting 10 21.7
2014-Jul-08 21:09 158 6 gusting 10 22.2
2014-Jul-08 21:04 209 3 gusting 6 22.2
2014-Jul-08 20:58 217 4 gusting 6 22.2
2014-Jul-08 20:54 222 2 gusting 5 22.2
2014-Jul-08 20:49 188 22.8
2014-Jul-08 20:44 188 0 gusting 5 22.8
2014-Jul-08 20:39 190 4 gusting 7 22.8
2014-Jul-08 20:34 221 5 gusting 7 22.8
2014-Jul-08 20:29 230 4 gusting 8 22.8
2014-Jul-08 20:24 231 5 gusting 8 22.8
2014-Jul-08 20:19 252 3 gusting 6 22.8
2014-Jul-08 20:14 162 3 gusting 6 22.8
2014-Jul-08 20:09 169 3 gusting 6 23.3
2014-Jul-08 20:04 214 3 gusting 6 23.3
2014-Jul-08 19:59 238 1 gusting 6 23.3
2014-Jul-08 19:54 213 4 gusting 6 23.3
2014-Jul-08 19:49 213 1 gusting 6 23.3
2014-Jul-08 19:44 210 3 gusting 6 23.9
2014-Jul-08 19:39 229 0 gusting 4 23.9
2014-Jul-08 19:34 267 1 gusting 6 23.9
2014-Jul-08 19:29 268 2 gusting 11 23.9
2014-Jul-08 19:24 216 6 gusting 11 23.9
2014-Jul-08 19:19 246 5 gusting 8 23.9
2014-Jul-08 19:14 284 2 gusting 6 24.4
2014-Jul-08 19:09 232 3 gusting 10 24.4
2014-Jul-08 19:04 215 6 gusting 10 24.4
2014-Jul-08 18:59 217 5 gusting 8 24.4
2014-Jul-08 18:54 236 5 gusting 11 24.4
2014-Jul-08 18:49 218 6 gusting 12 24.4
2014-Jul-08 18:44 232 8 gusting 12 24.4
2014-Jul-08 18:39 217 8 gusting 13 25.0
2014-Jul-08 18:34 231 6 gusting 13 25.0
2014-Jul-08 18:29 200 7 gusting 12 25.0
2014-Jul-08 18:24 225 6 gusting 12 25.0
2014-Jul-08 18:19 245 5 gusting 13 25.6
2014-Jul-08 18:09 242 6 gusting 13 25.6
2014-Jul-08 18:04 213 7 gusting 16 25.6
2014-Jul-08 17:59 247 9 gusting 16 25.6
2014-Jul-08 17:54 217 7 gusting 16 25.6
2014-Jul-08 17:49 207 9 gusting 16 25.6
2014-Jul-08 17:44 242 6 gusting 15 26.1
2014-Jul-08 17:39 252 5 gusting 15 26.1
2014-Jul-08 17:29 209 8 gusting 16 26.1
2014-Jul-08 17:24 248 8 gusting 16 26.1
2014-Jul-08 17:19 239 7 gusting 12 26.1
2014-Jul-08 17:14 244 6 gusting 15 26.1
2014-Jul-08 17:09 261 7 gusting 17 26.1
2014-Jul-08 17:04 244 7 gusting 17 26.7
2014-Jul-08 16:59 225 6 gusting 20 26.7
2014-Jul-08 16:54 213 6 gusting 15 26.7
2014-Jul-08 16:49 232 6 gusting 15 26.7
2014-Jul-08 16:44 202 8 gusting 13 26.7
2014-Jul-08 16:39 271 6 gusting 15 27.2
2014-Jul-08 16:34 238 6 gusting 19 27.2
2014-Jul-08 16:29 267 7 gusting 12 27.2
2014-Jul-08 16:24 261 6 gusting 12 27.2
2014-Jul-08 16:19 232 6 gusting 17 27.2
2014-Jul-08 16:14 217 10 gusting 17 27.2
2014-Jul-08 16:09 180 5 gusting 13 27.2
2014-Jul-08 16:04 246 4 gusting 8 27.2